Location: Chervonnoye
(48.6000°N, 34.4000°E)
Time: 13:47:51
(UTC+00:00)

NOAA 12 - Pass Details

Date: 23 November 2020
Orbit: 795 x 815 km, 98.5° (Epoch: 27 January)

Event Time Altitude Azimuth Distance (km) Brightness Sun altitude
Rises 14:31:55 0° 150° (SSE) 3,330 7.2 -6.3°
Reaches altitude 10° 14:34:17 10° 146° (SE) 2,403 6.5 -6.7°
Maximum altitude 14:39:28 55° 69° (ENE) 975 4.2 -7.5°
Drops below altitude 10° 14:44:41 10° 353° (N) 2,415 6.4 -8.3°
Sets 14:47:04 0° 349° (N) 3,349 7.2 -8.6°
